�������l�o���
Date,Time,MP-1(��Sv/h),MP-2(��Sv/h),MP-3(��Sv/h),MP-4(��Sv/h),MP-5(��Sv/h),MP-6(��Sv/h),MP-7(��Sv/h),MP-8(��Sv/h),����,����(m/s),���J
2020/10/19,00:00,0.647,0.923,0.588,1.132,0.812,0.377,0.659,0.623,���k��,2.6,��
2020/10/19,00:10,0.646,0.923,0.586,1.132,0.812,0.378,0.660,0.622,�k��,2.0,��
2020/10/19,00:20,0.647,0.923,0.588,1.130,0.813,0.377,0.658,0.622,�k�k��,0.9,��
2020/10/19,00:30,0.648,0.922,0.587,1.129,0.811,0.377,0.658,0.622,�k,0.8,��
2020/10/19,00:40,0.646,0.924,0.586,1.130,0.811,0.379,0.659,0.622,�k��,0.6,��
2020/10/19,00:50,0.648,0.924,0.587,1.133,0.812,0.377,0.658,0.623,�k��,0.9,��
2020/10/19,01:00,0.648,0.920,0.586,1.131,0.814,0.377,0.659,0.624,���k��,1.1,��
2020/10/19,01:10,0.648,0.921,0.588,1.130,0.813,0.378,0.658,0.623,-,CALM,��
2020/10/19,01:20,0.648,0.923,0.587,1.131,0.811,0.378,0.658,0.626,�k�k��,1.7,��
2020/10/19,01:30,0.649,0.923,0.587,1.131,0.812,0.378,0.657,0.622,�k,2.2,��
2020/10/19,01:40,0.649,0.923,0.587,1.130,0.811,0.378,0.659,0.622,�k,2.0,��
2020/10/19,01:50,0.647,0.923,0.587,1.129,0.813,0.378,0.657,0.623,�k��,1.4,��
2020/10/19,02:00,0.648,0.923,0.586,1.129,0.810,0.379,0.657,0.623,��,1.4,��
2020/10/19,02:10,0.648,0.923,0.586,1.131,0.812,0.378,0.657,0.623,��,2.0,��
2020/10/19,02:20,0.648,0.925,0.588,1.130,0.813,0.378,0.659,0.621,���k��,1.9,��
2020/10/19,02:30,0.649,0.922,0.588,1.130,0.811,0.378,0.658,0.624,�k��,2.5,��
2020/10/19,02:40,0.648,0.922,0.588,1.131,0.809,0.379,0.657,0.624,�k��,1.7,��
2020/10/19,02:50,0.647,0.924,0.588,1.130,0.811,0.379,0.659,0.623,��,2.2,��
2020/10/19,03:00,0.649,0.923,0.588,1.130,0.810,0.377,0.658,0.623,���k��,2.6,��
2020/10/19,03:10,0.650,0.921,0.585,1.130,0.812,0.377,0.657,0.622,���k��,3.7,��
2020/10/19,03:20,0.648,0.923,0.587,1.131,0.812,0.379,0.659,0.622,���k��,5.1,��
2020/10/19,03:30,0.648,0.922,0.588,1.130,0.812,0.377,0.658,0.623,���k��,3.7,��
2020/10/19,03:40,0.647,0.923,0.587,1.131,0.812,0.379,0.658,0.624,���k��,2.8,��
2020/10/19,03:50,0.647,0.924,0.589,1.130,0.812,0.378,0.658,0.622,���k��,2.6,��
2020/10/19,04:00,0.650,0.922,0.587,1.132,0.812,0.379,0.658,0.624,���k��,2.0,��
2020/10/19,04:10,0.648,0.923,0.587,1.129,0.810,0.378,0.658,0.622,�k��,1.5,��
2020/10/19,04:20,0.649,0.924,0.588,1.131,0.811,0.378,0.657,0.622,��,0.6,��
2020/10/19,04:30,0.647,0.922,0.587,1.129,0.813,0.377,0.658,0.621,��,1.4,��
2020/10/19,04:40,0.649,0.921,0.587,1.131,0.810,0.379,0.658,0.623,���k��,2.3,��
2020/10/19,04:50,0.649,0.922,0.585,1.130,0.812,0.378,0.658,0.623,���k��,4.0,��
2020/10/19,05:00,0.649,0.921,0.586,1.130,0.810,0.380,0.657,0.622,���k��,3.1,��
2020/10/19,05:10,0.649,0.921,0.586,1.130,0.811,0.377,0.658,0.622,��,2.8,��
2020/10/19,05:20,0.649,0.923,0.588,1.131,0.813,0.377,0.659,0.623,��,2.6,��
2020/10/19,05:30,0.648,0.922,0.586,1.131,0.811,0.378,0.656,0.623,��,3.0,��
2020/10/19,05:40,0.648,0.922,0.587,1.130,0.810,0.380,0.657,0.621,��,4.1,��
2020/10/19,05:50,0.648,0.922,0.588,1.131,0.812,0.378,0.657,0.621,���k��,4.1,��
2020/10/19,06:00,0.646,0.921,0.586,1.131,0.809,0.378,0.657,0.623,���k��,5.0,��
2020/10/19,06:10,0.647,0.920,0.586,1.131,0.809,0.377,0.657,0.622,�k��,4.1,��
2020/10/19,06:20,0.648,0.923,0.586,1.132,0.808,0.378,0.658,0.623,�k��,4.6,��
2020/10/19,06:30,0.646,0.922,0.587,1.132,0.811,0.378,0.658,0.622,�k��,4.7,��
2020/10/19,06:40,0.649,0.921,0.584,1.129,0.810,0.378,0.658,0.622,�k��,4.7,��
2020/10/19,06:50,0.648,0.923,0.586,1.133,0.809,0.378,0.658,0.624,�k��,4.3,��
2020/10/19,07:00,0.650,0.924,0.586,1.133,0.811,0.376,0.658,0.625,�k��,3.7,��
2020/10/19,07:10,0.649,0.922,0.588,1.133,0.810,0.378,0.660,0.623,�k�k��,3.6,��
2020/10/19,07:20,0.648,0.922,0.586,1.133,0.810,0.378,0.658,0.622,�k�k��,2.9,��
2020/10/19,07:30,0.650,0.922,0.587,1.130,0.810,0.377,0.659,0.624,�k�k��,3.3,��
2020/10/19,07:40,0.650,0.923,0.586,1.133,0.812,0.378,0.658,0.623,�k�k��,3.0,��
2020/10/19,07:50,0.650,0.923,0.589,1.131,0.812,0.379,0.661,0.625,�k��,3.3,��
2020/10/19,08:00,0.650,0.924,0.588,1.134,0.811,0.378,0.658,0.623,�k��,3.3,��
2020/10/19,08:10,0.651,0.922,0.590,1.133,0.812,0.378,0.660,0.624,�k��,2.3,��
2020/10/19,08:20,0.652,0.925,0.589,1.133,0.814,0.379,0.659,0.623,�k��,2.5,��
2020/10/19,08:30,0.652,0.923,0.590,1.132,0.813,0.379,0.658,0.624,�k�k��,2.3,��
2020/10/19,08:40,0.652,0.921,0.588,1.133,0.814,0.378,0.659,0.624,�k,2.6,��
2020/10/19,08:50,0.652,0.922,0.589,1.134,0.813,0.379,0.660,0.627,�k�k��,3.6,��
2020/10/19,09:00,0.650,0.923,0.590,1.134,0.813,0.379,0.659,0.624,�k�k��,3.4,��
2020/10/19,09:10,0.650,0.920,0.589,1.133,0.812,0.377,0.658,0.625,�k�k��,3.7,��
2020/10/19,09:20,0.651,0.919,0.589,1.132,0.812,0.377,0.658,0.624,�k�k��,2.9,��
2020/10/19,09:30,0.651,0.918,0.590,1.133,0.813,0.379,0.660,0.624,�k�k��,3.1,��
2020/10/19,09:40,0.651,0.919,0.586,1.135,0.814,0.378,0.659,0.624,�k�k��,3.4,��
2020/10/19,09:50,0.650,0.921,0.587,1.137,0.813,0.378,0.658,0.624,�k,2.0,��
2020/10/19,10:00,0.652,0.921,0.585,1.133,0.815,0.379,0.659,0.623,�k�k��,2.0,��
2020/10/19,10:10,0.651,0.921,0.588,1.133,0.812,0.377,0.658,0.622,�k�k��,2.3,��
2020/10/19,10:20,0.650,0.920,0.590,1.135,0.810,0.377,0.659,0.622,�k�k��,3.2,��
2020/10/19,10:30,0.650,0.921,0.589,1.134,0.807,0.377,0.659,0.622,�k�k��,1.9,��
2020/10/19,10:40,0.650,0.921,0.590,1.135,0.810,0.378,0.660,0.623,�k��,2.0,��
2020/10/19,10:50,0.649,0.922,0.591,1.135,0.813,0.378,0.660,0.623,�k��,2.6,��
2020/10/19,11:00,0.649,0.922,0.591,1.137,0.814,0.377,0.658,0.622,�k�k��,2.6,��
2020/10/19,11:10,0.651,0.925,0.590,1.130,0.816,0.376,0.660,0.621,�k�k��,2.0,��
2020/10/19,11:20,0.652,0.920,0.589,1.127,0.815,0.378,0.659,0.623,�k�k��,1.2,��
2020/10/19,11:30,0.653,0.924,0.590,1.132,0.816,0.378,0.659,0.623,�k�k��,2.2,��
2020/10/19,11:40,0.650,0.926,0.592,1.132,0.816,0.377,0.659,0.624,�k�k��,1.7,��
2020/10/19,11:50,0.651,0.926,0.585,1.134,0.815,0.378,0.658,0.624,�k�k��,1.7,��
2020/10/19,12:00,0.652,0.929,0.587,1.134,0.816,0.378,0.659,0.624,�k��,1.5,��
2020/10/19,12:10,0.651,0.929,0.590,1.137,0.817,0.378,0.659,0.622,�k��,1.2,��
2020/10/19,12:20,0.651,0.927,0.589,1.135,0.816,0.379,0.658,0.625,�k��,0.8,��
2020/10/19,12:30,0.652,0.930,0.591,1.134,0.817,0.380,0.659,0.624,-,CALM,��
2020/10/19,12:40,0.652,0.927,0.590,1.137,0.816,0.379,0.658,0.624,-,CALM,��
2020/10/19,12:50,0.650,0.927,0.590,1.135,0.814,0.378,0.659,0.623,-,CALM,��
2020/10/19,13:00,0.652,0.926,0.591,1.136,0.817,0.379,0.659,0.623,-,CALM,��
2020/10/19,13:10,0.651,0.926,0.591,1.135,0.816,0.378,0.660,0.625,��쓌,1.4,��
2020/10/19,13:20,0.651,0.924,0.592,1.135,0.816,0.381,0.658,0.624,��,0.9,��
2020/10/19,13:30,0.651,0.926,0.590,1.134,0.812,0.376,0.660,0.621,��쐼,1.1,��
2020/10/19,13:40,0.652,0.926,0.592,1.134,0.814,0.379,0.658,0.623,��쓌,1.7,��
2020/10/19,13:50,0.652,0.925,0.591,1.137,0.816,0.379,0.659,0.622,��,0.9,��
2020/10/19,14:00,0.653,0.924,0.592,1.137,0.817,0.379,0.661,0.624,��,1.1,��
2020/10/19,14:10,0.652,0.926,0.591,1.136,0.816,0.379,0.660,0.623,��,1.7,��
2020/10/19,14:20,0.654,0.927,0.590,1.138,0.817,0.379,0.659,0.625,��,2.3,��
2020/10/19,14:30,0.653,0.927,0.592,1.135,0.817,0.380,0.659,0.624,��,2.5,��
2020/10/19,14:40,0.652,0.929,0.588,1.135,0.817,0.380,0.659,0.625,��,2.6,��
2020/10/19,14:50,0.652,0.927,0.591,1.137,0.815,0.379,0.658,0.625,��,2.0,��
2020/10/19,15:00,0.654,0.929,0.591,1.134,0.816,0.378,0.660,0.625,��,2.3,��
2020/10/19,15:10,0.651,0.926,0.591,1.137,0.816,0.381,0.661,0.625,��쐼,2.9,��
2020/10/19,15:20,0.652,0.929,0.590,1.134,0.817,0.380,0.660,0.625,��쐼,3.0,��
2020/10/19,15:30,0.652,0.931,0.590,1.135,0.817,0.379,0.660,0.627,�쐼,2.6,��
2020/10/19,15:40,0.652,0.928,0.592,1.137,0.818,0.380,0.659,0.625,�쐼,4.1,��
2020/10/19,15:50,0.654,0.929,0.591,1.137,0.818,0.379,0.660,0.625,��쐼,3.4,��
2020/10/19,16:00,0.654,0.929,0.591,1.138,0.817,0.381,0.660,0.625,��,2.3,��
2020/10/19,16:10,0.651,0.931,0.591,1.135,0.818,0.381,0.658,0.625,��쐼,2.3,��
2020/10/19,16:20,0.652,0.929,0.593,1.135,0.820,0.380,0.659,0.627,�쐼,1.9,��
2020/10/19,16:30,0.654,0.926,0.592,1.134,0.816,0.380,0.660,0.625,���쐼,2.0,��
2020/10/19,16:40,0.652,0.930,0.592,1.138,0.817,0.380,0.660,0.625,��,2.3,��
2020/10/19,16:50,0.653,0.930,0.591,1.136,0.818,0.381,0.661,0.626,���k��,2.8,��
2020/10/19,17:00,0.653,0.930,0.590,1.138,0.819,0.381,0.660,0.624,���k��,1.7,��
2020/10/19,17:10,0.653,0.930,0.592,1.135,0.816,0.379,0.659,0.625,��,2.6,��
2020/10/19,17:20,0.652,0.929,0.590,1.135,0.818,0.380,0.660,0.625,��,2.6,��
2020/10/19,17:30,0.653,0.930,0.589,1.136,0.818,0.379,0.658,0.626,��,1.7,��
2020/10/19,17:40,0.651,0.930,0.592,1.136,0.817,0.379,0.661,0.624,���쐼,2.2,��
2020/10/19,17:50,0.652,0.931,0.591,1.138,0.816,0.380,0.660,0.625,���쐼,2.2,��
2020/10/19,18:00,0.651,0.930,0.591,1.135,0.816,0.381,0.663,0.626,��,1.5,��
2020/10/19,18:10,0.652,0.930,0.590,1.138,0.817,0.379,0.661,0.625,���쐼,1.5,��
2020/10/19,18:20,0.651,0.928,0.591,1.136,0.818,0.380,0.659,0.625,�쐼,2.0,��
2020/10/19,18:30,0.652,0.928,0.591,1.136,0.818,0.379,0.661,0.625,���쐼,2.6,��
2020/10/19,18:40,0.652,0.929,0.591,1.137,0.816,0.379,0.660,0.626,���k��,1.7,��
2020/10/19,18:50,0.652,0.930,0.590,1.137,0.818,0.380,0.659,0.625,���k��,2.6,��
2020/10/19,19:00,0.652,0.930,0.591,1.136,0.817,0.380,0.660,0.625,���k��,5.2,��
2020/10/19,19:10,0.653,0.929,0.590,1.136,0.816,0.379,0.659,0.625,���k��,4.4,��
2020/10/19,19:20,0.651,0.929,0.591,1.138,0.815,0.381,0.659,0.627,���k��,3.9,��
2020/10/19,19:30,0.651,0.932,0.591,1.137,0.816,0.380,0.658,0.626,���k��,4.4,��
2020/10/19,19:40,0.651,0.930,0.591,1.135,0.816,0.379,0.659,0.625,���쐼,3.3,��
2020/10/19,19:50,0.653,0.930,0.588,1.136,0.817,0.380,0.661,0.624,���쐼,3.0,��
2020/10/19,20:00,0.651,0.930,0.589,1.137,0.815,0.379,0.659,0.626,�쐼,2.9,��
2020/10/19,20:10,0.652,0.930,0.589,1.137,0.818,0.380,0.658,0.623,�쐼,3.0,��
2020/10/19,20:20,0.649,0.933,0.587,1.137,0.816,0.379,0.661,0.625,��쐼,3.1,��
2020/10/19,20:30,0.650,0.930,0.589,1.137,0.817,0.380,0.660,0.626,��쐼,3.6,��
2020/10/19,20:40,0.651,0.929,0.591,1.138,0.815,0.380,0.659,0.625,�쐼,3.1,��
2020/10/19,20:50,0.652,0.929,0.591,1.136,0.817,0.378,0.661,0.626,�쐼,3.4,��
2020/10/19,21:00,0.650,0.930,0.590,1.137,0.817,0.380,0.660,0.625,�쐼,2.9,��
2020/10/19,21:10,0.648,0.931,0.591,1.135,0.818,0.379,0.660,0.626,�쐼,2.0,��
2020/10/19,21:20,0.649,0.930,0.590,1.136,0.816,0.379,0.658,0.625,��쐼,1.1,��
2020/10/19,21:30,0.651,0.928,0.592,1.136,0.817,0.379,0.659,0.624,��쐼,1.4,��
2020/10/19,21:40,0.652,0.930,0.589,1.138,0.817,0.380,0.660,0.624,�쐼,1.7,��
2020/10/19,21:50,0.651,0.929,0.590,1.138,0.818,0.378,0.659,0.624,�쐼,1.4,��
2020/10/19,22:00,0.648,0.931,0.589,1.136,0.818,0.379,0.660,0.624,�쐼,1.5,��
2020/10/19,22:10,0.650,0.929,0.592,1.138,0.818,0.379,0.661,0.623,��,1.2,��
2020/10/19,22:20,0.651,0.929,0.589,1.137,0.815,0.379,0.660,0.624,���쐼,1.7,��
2020/10/19,22:30,0.649,0.930,0.589,1.138,0.817,0.379,0.660,0.625,��,1.4,��
2020/10/19,22:40,0.651,0.931,0.589,1.140,0.819,0.381,0.659,0.624,��,1.2,��
2020/10/19,22:50,0.649,0.931,0.590,1.136,0.818,0.380,0.660,0.624,���쐼,0.9,��
2020/10/19,23:00,0.651,0.930,0.592,1.137,0.819,0.380,0.660,0.625,��,1.7,��
2020/10/19,23:10,0.650,0.930,0.590,1.137,0.817,0.379,0.661,0.624,���k��,2.5,��
2020/10/19,23:20,0.651,0.927,0.589,1.137,0.816,0.380,0.660,0.625,���k��,2.6,��
2020/10/19,23:30,0.650,0.929,0.588,1.138,0.817,0.379,0.660,0.625,���k��,3.0,��
2020/10/19,23:40,0.649,0.928,0.590,1.139,0.817,0.379,0.659,0.624,���k��,3.0,��
2020/10/19,23:50,0.650,0.930,0.590,1.137,0.817,0.379,0.660,0.625,���k��,5.0,��
